Temp
25 23 22 23 23 23 22 22 23 23 21 19 19 19 19 19 19 19 19 19 20 20 20 20 20 20 20 19 19 19 20 20 20 20 20 20 20 19 19 19 19 19 19 19 19 19 19 19 19 19 19 19 19 19 19 19 19 19 19 19 19 19 19 18 18 18 18 18 18 18 18 18 18 18 18 18 19 19 19 19 20 20 19 18 17
25 23 22 23 23 23 22 22 22 23 22 20 18 18 19 19 19 19 19 19 20 20 20 20 19 19 19 20 20 20 20 20 20 20 20 19 20 19 19 19 19 19 19 19 19 19 19 19 19 19 19 19 19 19 19 19 20 20 19 19 19 18 18 18 18 18 18 18 18 18 18 18 18 18 19 19 19 19 19 19 20 20 19 17 17
24 22 21 22 23 23 22 22 22 23 22 21 19 19 19 19 19 19 19 19 20 19 19 19 19 19 20 20 20 20 20 20 20 20 20 19 19 19 19 19 19 19 19 19 19 19 19 19 19 19 19 19 19 19 19 20 20 20 19 19 19 19 18 18 18 18 18 18 19 19 18 18 17 17 18 18 18 19 19 19 19 19 17 17 17
24 22 21 21 22 23 22 22 22 23 22 21 20 19 19 19 19 19 19 19 19 19 19 19 19 19 19 20 20 20 20 20 20 20 20 19 19 19 19 19 19 19 19 20 20 19 19 19 19 19 19 19 19 19 19 19 19 19 19 19 19 19 18 18 18 18 19 19 19 20 20 19 18 17 17 17 17 18 18 18 18 18 17 17 17
24 22 21 20 21 22 22 22 22 23 22 21 19 19 19 19 19 19 19 19 19 19 19 19 19 19 19 20 20 20 20 20 20 20 19 19 19 19 19 19 19 19 19 19 19 19 19 19 19 19 19 19 19 19 19 19 19 19 19 19 19 19 19 18 18 18 19 19 20 21 21 20 18 17 17 16 17 17 17 17 17 17 17 17 17
24 22 21 20 20 20 22 22 22 23 21 19 18 18 18 18 19 19 19 19 19 19 19 19 19 19 20 20 20 20 20 19 19 19 19 19 19 19 19 19 19 19 19 19 19 19 19 19 19 19 19 19 19 19 19 19 19 19 19 19 19 19 19 18 18 19 19 20 20 21 21 20 19 17 17 17 16 16 16 16 17 17 17 17 17
23 22 21 21 20 20 22 22 22 23 21 18 18 18 18 18 19 19 19 19 19 19 19 19 19 19 20 20 19 19 19 19 19 19 19 19 19 19 19 19 19 19 19 19 19 19 19 19 19 19 19 19 19 19 19 19 19 19 19 19 19 18 18 18 19 19 19 20 21 21 21 21 20 18 17 17 16 17 17 17 17 17 17 17 17
23 22 22 22 20 20 22 22 22 22 21 18 18 18 18 18 18 19 19 19 19 19 19 19 19 19 20 20 19 19 19 19 19 19 19 19 18 18 18 18 18 18 18 19 19 19 19 19 19 19 19 19 19 19 19 19 19 19 19 19 19 19 18 18 19 19 20 21 21 21 21 21 20 18 17 17 17 17 17 18 17 17 17 17 17
23 23 22 22 20 20 22 21 22 22 20 18 18 18 18 18 19 19 19 19 19 19 19 19 19 19 19 19 19 19 19 19 19 19 19 18 18 18 18 18 18 18 18 18 19 18 19 19 18 19 19 19 19 19 19 19 19 19 20 19 19 19 18 18 19 19 20 21 21 21 21 21 20 19 17 17 17 17 17 18 18 17 17 17 17
23 23 22 22 20 21 22 21 22 22 20 18 18 18 18 19 19 19 19 19 19 19 19 19 19 19 19 19 19 19 19 19 19 19 18 18 18 18 18 18 18 18 18 18 18 18 18 18 18 18 19 19 19 19 19 19 19 20 19 19 19 18 18 19 19 20 21 21 21 20 20 21 20 19 17 17 17 17 18 18 18 18 17 17 17
23 22 22 22 20 21 21 21 22 21 20 18 18 18 18 19 19 19 19 19 19 19 19 19 19 19 19 19 19 19 19 19 19 19 18 18 18 18 17 18 18 18 18 18 18 18 18 18 18 19 19 19 19 19 19 20 20 20 19 19 18 18 18 19 20 21 21 21 20 20 20 20 20 18 17 17 17 17 17 18 17 17 17 16 17
23 22 22 21 20 21 21 21 21 21 20 18 18 18 18 19 19 19 19 19 19 19 19 19 19 19 19 19 19 19 19 19 18 18 18 18 18 18 18 18 18 18 18 17 18 18 18 18 18 19 19 19 19 20 20 20 20 19 19 19 18 18 19 19 21 21 21 21 20 20 21 20 19 18 17 17 17 17 17 17 17 17 16 16 17
23 22 22 21 19 20 21 21 21 21 20 18 18 18 18 19 19 19 19 19 19 19 19 19 19 19 19 19 19 19 19 18 18 18 18 18 18 18 18 17 17 17 17 17 17 17 17 18 18 19 19 19 19 20 20 20 20 19 19 19 19 19 19 20 21 21 21 21 20 21 20 20 18 17 17 17 17 17 17 17 17 16 16 16 17
23 22 21 20 19 19 20 20 20 21 20 18 18 18 18 19 19 19 19 19 19 19 19 19 19 19 19 19 19 19 19 18 18 18 18 18 18 17 17 17 17 17 17 17 17 17 17 17 18 19 19 19 20 20 20 20 20 19 19 19 19 19 19 20 21 21 21 20 20 21 20 19 18 17 17 17 17 17 17 17 17 17 17 17 16
22 22 21 20 19 19 19 20 20 20 20 18 18 18 18 18 19 19 19 19 19 19 19 19 19 19 19 19 19 19 18 18 18 18 18 18 17 17 17 17 17 17 17 16 17 17 17 17 18 19 19 19 20 20 20 20 20 19 19 19 19 19 19 21 21 21 21 21 21 21 20 19 17 17 17 17 17 17 17 16 16 16 17 17 16
22 22 21 20 20 19 18 19 20 20 20 19 19 18 18 18 19 19 19 19 19 19 19 19 19 19 19 19 19 18 18 18 18 18 18 18 17 17 17 17 17 17 17 17 17 17 17 18 19 19 19 19 20 20 20 20 20 20 19 19 19 19 19 21 21 21 21 21 21 21 20 19 17 17 17 17 17 17 17 16 16 16 16 17 16
21 22 22 21 20 19 19 18 18 19 19 19 19 18 18 18 19 19 19 19 19 19 19 19 19 19 19 19 18 18 18 19 18 18 18 18 18 17 17 17 17 18 18 17 17 18 18 19 19 19 19 20 20 20 20 20 20 20 19 19 19 19 19 20 21 21 21 21 21 21 20 19 17 17 17 17 17 16 16 16 16 16 16 16 16
21 22 22 21 21 21 20 19 18 18 18 18 18 18 18 18 19 19 18 19 19 19 19 19 19 19 19 18 18 18 18 19 18 18 18 18 18 18 17 17 17 17 18 17 17 18 19 19 19 19 20 20 20 20 20 20 20 20 19 19 19 19 19 20 21 21 20 20 21 21 20 19 17 17 17 17 16 16 16 16 16 16 16 16 16
22 22 22 22 22 21 20 19 19 19 19 19 18 18 18 18 18 18 18 19 19 19 19 19 19 19 19 18 18 19 19 19 18 18 18 18 18 18 17 17 17 17 18 18 18 18 19 19 19 19 20 20 20 20 20 20 20 20 19 19 19 19 19 20 21 21 21 21 21 21 19 18 17 17 17 16 16 16 16 16 16 16 15 15 15
21 21 22 22 22 21 21 20 20 20 19 19 18 18 18 18 18 18 18 18 19 19 19 19 18 18 18 19 19 19 18 19 19 18 18 18 18 17 18 17 17 17 17 18 18 18 19 19 19 19 19 19 19 20 20 20 20 20 19 19 19 19 19 21 21 21 21 21 21 20 19 18 17 17 17 16 16 16 16 16 16 15 15 15 15
21 21 22 22 22 21 21 20 20 20 20 19 19 18 18 18 18 18 18 18 18 18 19 18 18 18 18 19 19 19 19 19 19 18 18 18 18 18 18 18 17 17 17 17 18 18 19 19 19 19 19 19 19 20 20 20 20 19 19 19 19 19 20 21 21 21 21 21 21 20 19 18 17 17 17 16 16 16 16 16 15 15 15 15 15
21 21 21 22 21 20 20 20 20 20 19 19 19 18 18 18 18 18 18 18 18 18 19 19 19 18 18 19 19 19 19 19 19 18 18 18 18 18 17 17 17 17 17 17 18 19 19 19 19 19 19 19 19 20 20 20 20 19 19 19 19 20 20 20 21 21 21 21 21 20 19 18 17 17 17 17 17 16 16 16 16 15 15 15 15
21 21 21 21 20 20 20 20 20 19 19 19 19 19 19 19 19 19 19 18 18 19 19 19 19 19 19 19 19 19 19 19 19 18 18 18 18 18 17 17 17 17 17 17 18 19 19 19 19 19 19 19 20 20 20 19 19 19 19 19 19 20 20 20 21 21 21 21 21 20 19 18 17 16 16 16 17 16 16 16 16 15 15 15 15
22 22 21 20 20 20 20 20 20 19 20 20 19 19 19 20 20 20 19 19 19 19 19 19 20 19 19 20 19 19 19 19 18 18 19 19 18 18 17 18 18 18 18 18 18 18 19 19 19 19 19 19 20 21 21 20 19 19 19 19 19 20 20 21 21 21 21 21 20 20 19 18 17 16 16 16 16 16 16 16 16 15 15 15 15
22 22 21 20 20 19 19 20 19 19 19 19 20 19 20 20 20 20 20 20 19 19 19 19 19 19 19 19 19 18 19 19 19 19 19 19 19 19 18 19 19 19 18 19 19 19 19 19 19 19 20 20 21 21 21 21 20 20 20 20 20 20 20 21 21 21 21 21 20 19 19 18 17 16 16 16 16 16 16 16 16 15 15 15 15
22 22 21 20 19 19 19 20 19 19 19 20 20 20 20 21 20 20 20 20 20 20 19 19 19 19 19 19 19 19 19 19 19 19 19 19 19 19 19 19 19 19 19 19 20 19 20 20 20 20 20 20 21 21 21 21 21 20 20 20 20 20 20 21 21 21 21 21 20 19 19 18 18 17 16 16 16 16 16 16 16 15 15 15 15
22 21 21 20 19 19 19 19 19 19 19 20 20 20 20 20 20 19 20 20 20 20 20 19 19 19 19 19 19 19 19 19 19 19 19 19 19 19 19 19 19 19 19 19 20 20 20 20 20 20 20 20 20 20 21 21 21 21 21 20 20 20 20 20 21 21 21 20 20 19 19 19 18 17 16 16 16 16 16 16 16 15 15 15 15
22 21 21 20 19 19 19 19 19 19 19 19 20 20 20 20 19 19 19 19 19 20 20 19 19 19 19 18 18 19 19 19 19 19 19 19 19 19 19 19 19 20 19 19 20 20 20 20 20 20 20 20 20 20 21 21 21 21 21 20 20 20 19 19 20 20 20 20 20 19 19 19 18 18 17 16 16 16 16 16 16 15 15 15 15
22 21 21 20 20 19 19 19 19 19 19 19 20 20 20 19 19 19 19 19 19 19 19 19 19 19 19 18 18 19 19 19 19 19 19 19 19 19 19 19 19 20 19 19 20 20 20 20 20 20 21 21 20 20 21 21 21 21 21 21 20 20 19 19 19 20 20 20 20 20 19 19 18 18 17 16 16 16 16 16 16 16 15 15 15
22 21 21 20 20 19 19 19 19 19 19 19 20 20 19 19 19 19 19 19 19 19 19 19 19 19 19 18 18 19 19 19 19 19 19 19 19 19 19 19 19 19 19 19 19 20 20 20 20 20 21 21 21 21 20 21 21 21 21 21 21 20 20 19 19 19 19 20 20 19 19 19 19 18 18 17 16 16 16 16 16 16 15 15 15
21 21 21 20 20 19 19 19 19 19 19 19 20 19 19 19 19 19 19 19 19 19 19 19 19 19 19 19 18 19 19 19 19 19 19 19 19 19 19 19 19 19 19 19 19 19 20 20 19 19 20 20 21 21 21 21 21 22 22 21 21 20 20 19 19 19 19 20 20 20 19 19 19 19 18 17 17 16 16 16 16 16 15 15 15
20 20 20 20 19 19 19 19 19 18 19 19 19 19 19 19 19 19 19 19 19 19 19 19 19 19 19 19 19 19 19 19 19 19 19 19 19 19 19 19 19 18 18 18 18 19 19 19 19 19 19 19 20 20 21 21 21 22 22 22 22 21 20 20 19 19 19 20 19 20 19 19 19 19 19 18 17 17 16 16 16 16 16 15 15
20 20 20 20 19 19 19 19 19 18 19 19 19 19 19 19 19 20 19 19 19 20 20 19 19 19 19 19 18 18 18 19 19 19 19 19 19 19 19 19 19 18 18 18 18 18 18 18 18 18 19 19 20 20 20 21 21 21 22 22 22 21 20 20 19 19 19 19 19 19 20 19 19 18 18 18 18 17 16 16 16 16 16 16 15
20 20 19 19 19 19 19 19 18 18 18 18 19 19 19 19 19 20 19 19 20 20 20 20 19 19 19 18 18 18 18 19 19 19 19 19 19 19 19 19 18 18 17 17 17 17 17 18 18 19 19 19 20 20 20 21 21 21 21 21 21 21 20 20 19 19 19 19 19 19 19 20 20 19 18 18 18 17 17 16 16 16 16 16 16
20 19 19 19 19 19 19 18 18 18 18 18 18 18 19 19 19 19 19 19 20 20 20 20 19 19 19 19 18 18 18 18 19 19 19 19 19 19 19 19 18 18 18 17 17 18 18 18 18 19 19 19 19 20 20 21 21 21 21 21 21 20 20 20 20 20 19 19 19 19 19 19 20 20 19 18 18 17 17 16 16 16 16 16 16
20 20 19 19 19 19 19 19 19 18 18 18 18 18 18 19 19 19 19 19 19 19 19 19 19 19 19 19 19 18 18 18 18 19 19 19 19 19 19 19 18 18 18 18 18 18 18 18 18 18 18 19 19 19 20 20 20 20 20 20 20 20 20 20 20 19 19 19 19 19 19 19 19 19 19 19 18 18 17 17 16 16 16 16 16
20 19 19 18 19 19 19 19 19 18 18 18 18 18 18 18 18 18 18 19 19 19 19 19 19 19 19 19 19 19 18 18 19 19 19 19 19 19 19 19 18 18 18 18 18 19 18 18 18 18 18 18 19 19 19 19 20 20 20 19 19 19 19 20 19 19 19 19 19 19 19 19 19 19 18 18 19 18 18 17 17 16 16 16 15
19 19 19 18 19 19 19 19 19 18 18 18 18 18 19 18 18 18 18 19 19 19 19 19 19 19 20 19 19 19 19 19 19 19 19 19 19 19 19 18 18 18 18 18 18 18 18 18 18 18 18 18 18 19 19 19 19 19 19 19 19 19 19 19 19 18 18 19 19 19 19 19 18 18 18 18 18 18 17 17 17 16 16 15 15
19 18 19 19 19 19 19 19 18 18 18 18 18 18 18 18 19 19 19 19 19 19 19 19 20 20 20 19 19 19 19 19 19 19 19 19 19 19 19 18 18 18 18 19 19 18 18 18 18 18 18 18 18 18 18 19 19 18 19 18 18 18 18 18 18 18 18 18 18 19 19 19 18 18 18 18 18 18 18 17 17 16 16 16 15
18 18 18 19 19 19 19 18 18 18 18 18 18 18 19 18 19 19 19 19 20 20 19 20 20 20 20 19 19 19 19 19 19 19 19 19 19 19 19 18 18 18 18 19 19 19 18 18 18 18 18 18 18 18 18 18 18 19 19 18 18 18 18 18 17 17 17 17 17 18 18 18 18 18 18 18 18 18 18 18 17 17 17 16 16
18 18 18 19 19 19 19 18 18 18 18 18 19 19 19 19 19 19 20 20 20 20 20 20 20 20 19 19 19 19 19 19 19 19 19 19 19 19 19 18 18 18 18 18 18 18 18 18 18 18 17 18 18 19 18 18 19 19 20 20 19 19 18 18 18 18 18 17 17 17 17 18 18 18 18 18 18 18 18 18 18 17 17 17 16
18 18 18 18 18 18 18 18 18 18 18 19 19 19 19 19 20 20 20 20 20 20 20 20 20 19 19 19 19 19 19 19 19 19 19 19 19 19 19 18 18 18 18 18 18 18 18 18 18 18 18 18 18 18 18 18 19 20 21 20 20 20 20 19 18 18 18 18 17 17 17 17 17 17 18 18 18 17 17 17 17 17 17 17 17
18 18 18 18 18 18 18 18 18 18 19 19 19 19 19 19 20 20 20 20 20 20 19 19 19 19 19 19 19 19 19 19 19 19 19 19 19 19 19 18 18 18 18 18 18 18 18 18 18 18 18 18 18 18 18 18 19 20 20 20 21 21 21 20 19 19 18 18 18 17 17 17 17 17 17 18 18 17 17 17 17 17 16 17 17
18 18 18 18 18 18 18 18 18 19 19 19 19 19 19 19 19 20 20 20 20 19 19 19 19 19 19 19 19 19 19 19 19 18 18 18 18 18 18 18 18 19 18 18 18 18 18 18 18 18 18 19 19 19 18 18 18 19 20 20 21 21 21 21 21 20 19 19 18 18 17 17 17 17 17 17 17 17 17 17 17 16 16 16 17
18 18 18 18 18 18 18 18 18 18 19 19 18 18 19 19 19 19 20 20 20 20 20 20 20 20 20 20 19 19 19 19 19 18 18 18 18 18 18 18 18 19 18 18 19 18 18 18 18 18 18 18 19 19 19 18 18 18 19 20 20 21 21 21 21 21 20 20 19 19 18 18 18 17 17 17 17 17 17 17 16 16 16 16 16
17 18 18 17 18 18 17 18 18 18 18 18 18 18 19 19 20 20 20 21 21 20 20 20 20 20 20 19 19 19 19 19 19 18 18 18 18 18 18 18 18 18 18 18 18 18 18 18 18 18 18 18 18 18 19 19 18 18 18 18 19 19 20 20 20 20 21 20 20 19 19 18 18 18 17 17 17 17 16 16 16 16 16 16 16
17 17 17 17 17 17 17 18 18 18 18 18 18 18 19 20 20 20 21 21 21 20 20 19 19 19 19 19 19 18 18 18 18 18 18 18 18 18 18 18 18 18 18 18 18 18 18 18 18 18 18 18 17 18 19 19 18 18 17 17 17 18 18 18 18 19 20 20 20 20 19 19 18 18 18 17 17 17 17 16 16 16 16 16 16
17 17 17 17 17 17 17 18 18 18 18 18 18 19 19 20 20 20 20 20 20 19 19 19 19 19 19 19 19 19 18 18 18 18 18 18 18 18 18 18 18 18 18 18 18 18 18 18 18 18 18 18 17 18 18 18 18 18 18 17 17 18 17 17 18 18 18 19 20 20 20 19 19 18 18 18 18 17 17 17 17 16 16 16 15
17 17 17 17 17 17 17 18 18 18 18 18 19 19 19 20 20 19 19 19 19 19 19 19 19 18 18 18 18 18 18 18 17 17 17 17 17 17 17 17 17 18 18 18 18 18 18 18 18 18 17 17 17 17 17 18 18 18 18 18 18 18 17 17 17 17 17 18 19 20 21 20 19 19 18 18 18 18 18 17 17 16 16 16 16
17 17 17 18 18 17 18 18 18 18 18 19 19 19 19 19 19 19 19 19 19 19 19 19 18 18 18 18 18 18 18 17 17 17 16 16 17 16 16 17 17 17 17 17 17 17 17 17 17 17 17 17 18 17 17 17 18 18 17 17 18 18 18 18 18 17 17 18 18 19 21 21 20 20 19 19 18 18 18 18 17 16 16 16 16
17 17 17 18 18 18 18 18 18 18 18 19 19 19 19 19 19 19 19 19 18 18 19 18 18 18 18 18 17 17 17 17 16 16 16 15 15 16 16 16 16 16 17 17 17 17 17 17 17 17 17 17 17 17 17 17 17 17 17 17 17 18 18 18 18 18 18 18 18 19 20 21 21 21 20 19 19 18 18 18 17 17 16 16 16
Height
793 795 797 798 802 804 806 808 810 811 811 813 814 816 816 818 818 818 818 818 819 820 820 821 822 823 823 824 824 824 825 825 825 826 826 827 827 828 828 828 828 828 829 829 829 829 829 829 829 829 829 829 829 829 829 829 829 829 829 829 829 829 829 829 829 829 829 829 829 828 828 828 828 828 828 828 828 829 829 829 829 830 830 829 829
793 795 797 799 802 804 807 808 810 811 812 813 815 816 817 819 819 820 819 820 820 821 822 823 823 824 825 825 826 826 826 826 827 827 828 829 829 829 829 830 830 830 830 830 831 831 831 830 830 830 830 830 830 830 830 830 830 830 830 830 830 830 830 830 830 830 830 830 830 830 829 829 829 829 829 829 829 829 829 829 829 830 831 830 830
793 796 797 799 802 804 807 809 811 812 813 814 815 817 818 819 820 821 821 821 822 823 823 824 825 825 826 827 827 827 828 828 828 829 829 830 830 831 831 831 831 831 832 832 832 832 832 832 832 831 831 831 831 831 831 831 831 831 831 831 831 831 831 831 831 831 831 831 831 830 830 830 830 830 830 829 829 830 830 830 830 831 831 831 831
793 796 798 800 802 805 807 810 811 812 814 815 816 817 819 820 821 822 823 823 823 824 825 825 826 827 828 828 829 829 829 830 830 830 830 831 831 832 832 833 833 833 833 833 833 834 834 834 833 833 832 832 832 832 832 832 832 832 832 832 832 832 832 832 832 832 832 832 832 832 832 832 832 831 831 831 830 831 831 831 831 831 831 832 832
794 797 798 801 803 806 808 810 812 813 814 815 817 818 820 821 822 823 824 825 825 826 826 827 827 828 829 829 830 830 831 831 831 832 832 832 833 833 833 834 834 834 835 835 835 835 835 835 835 834 834 834 833 833 833 833 833 833 833 833 832 833 832 833 833 833 833 833 833 833 834 833 833 833 832 832 832 832 832 832 832 832 832 832 832
795 797 799 802 805 806 808 811 812 814 815 816 818 820 821 822 823 824 825 826 826 827 827 828 828 829 830 831 831 831 832 832 833 833 833 834 834 834 835 835 836 836 836 837 837 836 836 836 836 836 836 836 835 835 834 834 834 834 833 833 833 833 833 833 833 834 834 834 834 834 835 835 834 834 834 834 833 833 833 833 833 833 833 834 833
796 798 800 803 806 807 809 811 813 814 816 817 819 821 822 823 824 825 826 827 827 828 828 829 829 830 831 831 832 832 833 833 834 834 835 835 835 836 836 836 837 837 838 838 838 838 838 837 837 837 837 837 837 836 836 835 835 834 834 834 834 834 834 834 834 834 834 834 835 835 836 836 836 836 835 835 834 834 834 834 834 834 834 835 835
797 799 801 804 806 807 809 812 813 815 816 818 820 822 823 824 825 826 827 828 828 828 829 829 830 831 831 832 833 833 834 834 835 835 836 836 836 837 837 837 838 838 839 839 839 839 839 839 838 838 838 838 838 838 838 837 836 835 835 835 835 834 834 834 835 835 835 836 836 836 837 837 837 837 836 836 836 835 835 835 835 835 835 835 835
798 800 801 805 806 808 810 812 814 815 817 819 820 822 824 825 826 827 828 829 829 829 830 830 831 832 832 833 834 834 835 835 836 837 837 837 837 838 838 838 838 839 839 840 840 840 840 840 839 839 839 839 839 839 839 838 837 837 836 836 835 835 835 835 835 835 836 837 837 837 837 838 838 838 837 837 837 836 836 837 836 836 836 836 836
799 800 803 805 807 809 811 813 815 816 817 819 821 823 824 826 827 828 829 830 830 830 831 831 832 832 833 834 835 835 836 836 837 838 838 838 838 838 839 839 839 839 840 840 840 841 841 841 840 840 840 840 840 840 840 839 839 838 838 837 837 836 836 836 835 836 838 838 838 838 837 838 838 838 838 838 838 837 837 837 837 837 837 836 836
799 801 804 806 808 809 812 814 816 817 818 820 822 824 825 827 828 829 830 830 831 831 832 832 833 833 834 835 835 836 837 837 838 839 839 839 839 839 840 839 840 840 840 841 841 841 841 841 841 841 840 840 840 840 840 840 840 840 839 838 838 837 837 836 836 838 839 839 839 839 838 839 839 839 839 839 839 838 838 838 837 837 837 837 837
800 802 804 806 808 811 813 815 816 818 819 821 823 824 826 827 828 829 830 831 832 832 833 833 834 834 835 836 836 837 838 838 839 839 840 840 840 840 840 840 840 840 841 841 841 841 841 841 841 841 841 841 841 841 841 841 841 840 840 839 838 838 837 836 838 840 839 840 840 840 840 840 840 839 839 839 839 839 839 838 838 838 838 837 837
801 803 805 807 810 812 814 816 817 818 819 821 823 825 826 827 829 830 831 831 832 833 833 834 834 835 836 836 837 838 839 839 840 840 840 840 840 840 840 841 841 841 841 841 841 841 841 841 842 842 842 842 842 842 841 841 841 841 840 840 839 838 838 838 840 841 840 840 840 841 841 841 841 840 840 840 840 840 840 839 839 838 838 838 838
801 803 805 808 811 813 814 816 818 819 820 822 823 825 826 827 829 830 831 831 832 833 833 834 835 836 836 837 838 838 839 840 840 840 840 840 840 840 840 841 841 841 841 841 841 841 842 842 842 842 842 843 843 843 842 842 842 842 841 840 840 839 839 839 841 841 841 841 841 841 842 842 841 841 841 841 841 841 841 840 840 839 839 838 838
802 804 807 809 811 814 815 817 818 820 821 822 824 825 826 828 829 830 831 831 832 833 834 834 835 836 837 838 838 839 840 840 841 841 841 841 841 841 841 841 841 841 841 841 841 841 842 842 842 842 843 843 844 844 843 844 843 843 842 841 840 840 839 841 843 842 842 842 842 842 842 842 841 842 842 842 842 842 842 841 841 840 840 839 839
803 805 807 810 812 814 816 818 819 820 821 823 824 825 827 828 829 830 831 832 833 834 834 835 835 836 837 838 839 839 840 840 841 841 841 841 841 841 841 841 841 841 841 841 841 841 841 842 842 843 843 844 844 844 844 844 844 844 843 843 842 841 840 841 843 843 843 843 843 843 843 843 842 842 843 843 843 843 843 842 842 841 841 840 839
804 806 808 810 813 815 816 818 819 821 822 823 824 826 827 828 829 831 831 833 833 834 835 835 836 836 837 838 839 840 840 841 841 841 842 841 841 842 842 842 841 841 841 841 841 841 841 842 842 843 843 844 844 844 845 844 844 844 844 844 843 843 841 841 843 843 843 843 843 843 843 843 842 843 843 843 843 843 843 843 842 842 841 841 840
805 807 808 811 813 815 817 819 820 822 823 824 826 826 827 829 830 831 832 833 834 835 835 836 836 837 837 838 839 840 841 841 841 842 842 842 842 842 842 842 842 841 841 841 842 841 842 842 842 843 843 844 844 844 845 844 844 844 844 844 843 844 843 842 844 844 843 844 844 844 844 843 843 843 843 843 843 843 843 843 843 842 842 842 841
805 807 809 811 812 815 817 819 821 822 824 825 827 827 828 829 830 832 832 833 834 835 835 836 836 837 838 839 840 840 841 841 842 842 842 842 842 842 842 842 842 842 842 842 842 842 842 842 843 843 843 844 844 844 845 844 844 844 844 844 844 844 843 843 844 844 844 844 844 844 843 843 843 843 844 843 843 843 843 843 843 843 843 842 842
806 807 809 811 812 814 816 819 821 822 824 825 827 828 829 830 831 832 833 834 835 835 836 836 837 838 838 839 840 840 841 841 842 842 843 843 843 843 843 842 842 842 842 842 843 843 843 843 843 844 844 844 844 844 844 844 844 844 844 844 844 844 843 844 844 844 844 844 844 844 843 843 843 843 844 844 843 843 843 843 843 843 843 842 842
806 807 809 811 812 814 816 818 820 822 824 825 827 828 830 830 832 833 834 835 835 836 836 837 838 838 839 840 840 840 841 842 842 843 843 844 843 843 843 842 842 842 842 842 843 843 843 844 844 844 844 844 844 844 844 844 844 844 844 844 844 844 845 845 845 845 844 844 844 843 843 843 843 843 844 844 843 843 843 843 843 843 843 843 842
805 807 809 810 812 814 816 818 820 822 823 825 827 828 830 831 833 834 835 836 836 837 837 838 839 839 840 840 841 841 842 843 843 844 844 844 843 843 843 843 843 842 842 842 843 843 844 844 844 844 844 845 845 845 845 844 844 844 845 844 845 845 845 845 845 845 845 844 844 843 843 843 843 843 843 843 843 843 842 843 843 843 843 843 842
804 806 808 810 812 813 815 817 819 821 823 825 826 828 830 831 833 834 835 836 837 838 838 839 839 839 840 840 841 842 843 843 843 843 844 844 843 843 843 843 843 843 843 843 843 843 843 844 844 844 844 845 845 845 845 845 845 844 845 845 845 846 846 845 845 845 845 845 844 843 843 843 843 844 843 843 844 843 843 843 843 843 843 842 842
803 805 807 809 811 813 815 817 819 821 823 824 826 828 830 831 833 834 835 836 837 838 838 839 839 839 840 840 841 842 843 843 843 843 843 844 843 843 843 843 843 843 843 843 844 843 843 843 843 844 844 845 845 845 845 845 845 845 845 845 845 846 846 845 845 845 845 845 845 844 843 843 843 844 843 843 843 843 843 843 843 843 842 842 842
802 804 807 809 811 813 815 817 819 821 823 824 826 828 829 831 833 834 835 836 837 838 838 839 839 839 840 840 841 841 842 843 843 843 843 844 843 844 844 844 844 844 843 844 844 844 844 844 844 844 844 845 845 844 844 844 845 845 845 845 845 845 845 845 844 844 844 844 844 843 843 843 843 843 843 843 843 842 842 842 843 842 842 842 842
802 804 806 808 810 813 815 817 819 820 823 824 826 828 829 831 832 833 834 835 836 837 838 838 838 839 839 840 840 841 842 842 843 843 843 843 843 843 843 844 844 844 843 844 844 844 844 844 844 844 844 844 844 844 843 844 844 844 844 844 844 844 844 844 844 844 843 844 843 842 843 843 843 842 843 843 842 842 842 842 842 842 842 841 841
802 804 806 808 810 813 815 817 819 821 822 824 826 827 829 831 832 833 834 835 835 836 837 837 838 838 839 839 840 841 841 842 842 842 842 842 842 842 843 843 843 843 843 843 843 843 843 843 843 843 843 843 843 843 843 843 843 843 843 843 843 843 844 843 843 843 842 843 842 841 842 842 842 842 842 842 842 841 842 842 842 842 841 841 841
801 804 806 808 810 812 815 817 818 820 822 824 825 827 829 830 831 832 833 834 835 835 836 837 837 838 838 839 839 840 841 841 841 841 841 841 841 841 842 842 842 843 843 843 843 842 843 842 843 843 842 842 842 842 842 842 842 842 842 842 842 842 842 842 842 842 842 842 841 840 840 841 841 841 841 842 841 841 841 841 841 841 841 841 841
801 803 805 808 810 812 814 816 818 820 822 824 825 827 829 830 831 832 833 833 834 835 835 836 837 837 838 838 839 840 840 840 840 840 840 841 841 841 841 842 842 842 842 842 842 842 842 842 842 842 841 841 841 841 841 841 841 841 841 841 841 841 841 841 841 841 841 840 840 840 839 840 840 840 840 841 841 841 841 841 841 841 840 840 840
801 804 806 808 810 812 814 816 818 820 822 823 825 827 828 829 830 831 832 833 833 834 834 835 836 837 838 838 839 839 839 839 839 839 840 840 840 840 841 841 841 841 842 842 841 841 841 841 841 841 840 840 840 840 840 840 839 839 839 839 840 840 840 840 840 840 840 839 839 839 838 838 839 839 839 839 840 840 840 840 840 840 840 840 840
802 804 806 808 810 812 814 816 818 820 821 823 825 826 828 829 830 831 832 832 833 834 834 835 836 836 837 838 838 838 838 838 839 839 839 840 840 840 840 840 841 841 841 841 841 841 840 841 840 840 840 839 839 839 839 839 838 838 838 838 838 838 839 839 838 838 839 838 838 838 837 837 837 837 837 838 838 839 839 839 839 839 839 840 840
802 804 806 808 810 812 814 817 818 820 821 823 824 826 827 828 829 830 831 832 832 833 834 834 835 836 837 837 837 838 838 838 839 839 839 839 839 839 839 839 840 840 840 840 840 840 840 840 840 839 839 838 838 838 838 837 837 837 836 836 836 836 837 837 837 837 837 837 837 837 837 836 835 835 836 836 836 837 838 838 838 839 839 839 839
801 803 805 807 810 812 814 817 818 820 822 823 824 826 827 828 829 830 831 831 832 833 833 834 835 835 836 836 837 837 837 837 838 838 838 838 838 839 839 839 839 839 839 839 839 839 839 839 839 839 838 838 837 837 837 836 836 835 835 835 835 835 835 835 835 835 835 835 835 835 835 835 835 834 834 834 835 835 836 837 837 838 838 838 839
801 804 806 807 810 812 814 816 818 820 821 823 824 826 827 828 829 830 830 831 832 832 833 834 834 835 835 836 836 837 837 837 837 838 838 838 838 838 838 838 838 838 838 838 838 838 838 838 838 838 837 837 836 836 835 835 834 834 834 834 833 833 833 833 834 833 833 833 833 833 833 833 834 834 833 833 833 834 834 835 836 836 837 837 838
802 804 806 807 809 811 813 816 818 820 821 823 824 825 827 828 829 829 830 831 831 832 833 833 834 834 835 835 836 836 836 837 837 837 837 837 837 837 837 837 837 838 838 837 837 837 836 837 837 837 836 836 835 835 834 834 833 833 833 832 832 832 832 832 832 832 831 831 831 831 831 831 832 832 832 832 832 832 833 833 834 834 835 836 836
803 805 806 808 810 812 813 815 818 820 822 823 824 825 826 827 828 829 829 830 831 831 832 833 833 834 834 835 835 836 836 836 836 836 837 836 837 837 837 837 837 837 837 836 836 836 836 835 835 835 835 835 834 834 834 833 832 832 831 831 830 830 830 830 830 830 829 829 829 830 830 830 830 830 830 830 830 830 831 831 832 832 833 834 835
805 806 807 809 811 812 814 816 818 820 821 823 824 825 826 827 828 828 829 829 830 831 831 832 833 833 834 834 835 835 836 836 836 836 836 836 836 836 836 836 836 836 836 836 835 835 835 834 834 834 834 833 833 833 833 832 831 831 830 830 829 829 828 828 827 827 827 827 827 828 828 828 828 828 828 828 828 828 828 829 830 831 831 832 833
807 808 809 810 811 813 815 816 819 820 822 823 824 825 826 827 827 828 828 829 830 830 831 832 832 833 833 834 834 835 835 835 835 835 835 836 836 836 836 836 836 836 836 835 835 834 834 834 834 833 833 832 832 832 832 831 830 830 829 828 828 827 827 826 826 825 825 825 825 826 826 826 826 826 825 826 826 826 826 827 828 829 829 830 831
809 810 811 811 812 814 815 817 819 820 821 822 823 824 825 826 826 827 828 829 830 830 831 831 832 833 833 834 834 834 835 835 835 835 835 836 835 836 836 836 836 835 835 834 834 834 833 833 833 833 832 831 831 831 830 830 829 829 828 827 826 826 825 825 824 824 823 823 823 823 824 824 824 823 824 824 824 825 825 825 826 827 828 828 828
810 811 812 812 813 814 815 816 818 819 820 821 822 823 824 825 826 827 827 828 829 829 830 831 831 832 833 833 834 834 834 834 834 835 835 835 835 835 835 835 835 835 835 834 834 833 833 833 833 832 832 831 830 829 829 829 828 827 826 825 825 824 823 823 822 822 822 821 821 821 821 822 822 821 822 822 822 823 823 824 824 825 826 826 826
809 811 812 813 813 814 815 816 818 818 819 820 821 822 823 824 825 825 826 827 828 829 830 830 831 832 832 833 833 833 834 834 834 834 835 835 835 835 835 835 834 834 834 833 833 833 832 832 832 832 831 830 830 829 828 828 827 825 824 823 822 822 821 821 820 820 820 820 819 819 819 819 819 820 820 820 821 821 821 822 822 823 824 824 824
808 811 812 814 814 815 816 816 817 818 819 819 820 821 822 823 823 824 825 826 827 828 829 830 831 831 832 832 833 833 833 834 834 834 834 834 834 834 834 834 834 833 833 833 832 832 832 832 831 831 830 830 829 828 828 828 826 824 822 821 819 818 818 818 818 818 817 818 817 817 817 817 817 818 818 818 818 819 819 820 820 820 821 822 823
808 811 812 814 815 816 816 816 817 817 818 819 819 821 822 822 823 824 824 826 827 828 829 830 831 831 831 832 832 833 833 833 834 834 834 834 834 834 834 833 833 833 832 832 832 831 831 831 830 830 829 829 828 827 827 827 826 824 822 821 818 815 815 815 815 815 815 815 815 815 815 815 815 815 816 816 816 817 817 818 818 818 819 820 821
808 811 812 814 815 816 816 816 817 817 817 818 819 820 821 822 823 823 824 826 827 828 829 830 830 831 831 832 832 832 833 833 833 834 834 834 834 833 833 833 832 832 831 831 831 830 830 830 829 829 828 828 827 826 826 825 825 823 822 819 816 815 814 812 811 812 812 813 813 813 812 812 813 813 814 814 814 814 815 815 816 816 817 817 818
806 810 812 814 815 815 816 816 816 816 817 817 818 820 821 821 822 824 825 826 827 828 828 829 830 831 831 832 832 832 832 833 833 833 833 833 833 833 833 832 832 831 831 830 830 829 829 829 828 828 828 827 826 825 824 824 824 823 822 820 817 816 813 811 811 810 810 811 811 810 811 810 810 811 811 811 811 811 812 812 813 813 813 814 815
804 809 811 813 814 815 815 815 815 815 816 817 818 819 820 821 822 823 824 825 826 828 828 829 830 831 831 832 832 832 832 832 832 833 833 833 833 832 832 832 831 831 830 829 829 828 828 827 827 827 826 826 825 824 823 823 823 822 822 821 819 817 814 812 812 810 808 808 808 808 808 808 808 808 808 808 808 809 809 809 809 809 810 811 812
803 808 811 813 813 814 814 814 814 815 815 816 817 819 820 821 822 823 824 825 826 828 829 830 830 831 832 832 832 832 832 832 832 832 832 832 832 832 832 831 831 830 830 829 828 828 827 826 826 826 825 825 824 823 822 822 821 821 820 820 819 817 816 815 814 812 809 807 805 806 806 806 806 806 806 806 806 806 806 806 806 806 807 808 809
802 806 810 812 812 813 813 813 813 815 815 816 817 819 820 821 822 823 825 826 827 828 830 831 831 832 832 832 832 832 832 832 832 832 832 832 832 832 831 831 831 830 829 829 828 827 826 826 825 825 824 823 823 822 821 820 819 818 818 818 817 816 816 815 813 813 812 808 804 803 803 803 803 803 803 803 803 803 802 803 803 803 804 804 805
801 805 808 810 810 811 812 812 813 815 815 816 817 818 820 821 822 824 825 827 828 829 830 831 832 832 833 833 833 833 833 832 833 833 832 832 832 832 831 831 830 830 829 828 827 826 826 825 824 824 823 822 821 821 820 819 818 817 816 815 815 814 813 813 812 811 810 809 804 800 799 800 800 800 800 800 800 800 800 800 800 800 801 801 802
800 805 807 809 810 810 811 812 813 815 815 816 818 819 821 822 823 824 826 827 828 830 831 831 832 833 833 833 833 833 833 832 833 832 832 832 832 831 831 830 830 829 829 828 827 826 825 825 824 823 822 821 821 820 819 818 817 816 815 814 813 812 811 810 809 809 808 807 804 799 797 797 797 796 796 796 796 797 796 797 797 797 797 797 798
800 805 807 809 810 811 812 813 814 815 816 818 819 820 822 823 824 825 827 828 829 830 831 831 832 832 832 833 833 833 833 833 832 832 832 831 831 831 830 830 829 828 828 827 826 825 824 824 823 822 821 821 820 819 818 817 815 814 813 812 811 810 809 807 806 806 806 804 802 799 796 795 793 792 793 793 793 793 793 793 793 793 794 794 795
Wind_Speed
19 20 24 25 22 20 17 17 16 16 17 16 16 17 16 17 18 18 19 20 21 20 19 18 19 19 20 19 18 18 17 17 17 17 16 17 17 16 15 16 17 17 17 17 17 17 17 17 17 17 17 18 17 17 17 17 16 15 15 14 14 14 13 13 13 13 13 13 13 12 12 11 11 10 10 10 9 11 13 11 9 9 10 11 11
21 21 24 25 22 20 18 17 16 17 18 18 17 17 17 18 19 20 21 21 20 20 19 19 19 19 19 19 18 18 18 18 17 17 17 16 16 16 15 16 17 17 17 16 17 16 16 16 17 17 17 17 17 17 17 16 15 14 13 13 14 14 13 13 13 14 13 14 13 12 12 11 10 9 9 9 8 9 11 11 11 10 10 10 11
22 21 23 25 22 20 18 17 16 18 19 20 19 19 19 19 19 19 19 19 19 20 20 20 20 19 19 18 18 18 18 18 17 17 16 16 16 16 15 15 16 16 16 16 16 15 15 16 16 16 17 17 17 17 16 16 16 16 14 12 12 13 13 12 13 13 13 14 12 12 11 10 11 11 10 9 8 8 8 9 10 10 10 9 10
22 21 23 24 22 20 18 16 16 17 19 19 19 19 19 17 17 17 17 18 20 21 20 20 20 19 19 18 18 18 18 17 17 17 16 15 15 15 15 15 15 15 15 15 15 15 15 15 15 15 16 16 16 16 16 15 16 17 16 14 12 12 11 11 11 11 12 14 11 10 11 11 12 13 11 10 9 9 9 7 7 9 10 9 9
22 21 24 23 20 20 18 16 15 17 18 18 17 17 17 16 16 17 18 19 20 20 20 20 19 19 18 17 17 17 17 17 16 16 16 15 15 14 15 15 15 15 14 14 14 14 14 14 14 14 15 15 15 15 14 14 14 14 14 14 13 12 11 10 10 10 12 14 12 9 10 11 12 12 12 11 11 11 11 10 10 10 11 11 10
22 21 24 22 20 20 18 17 15 16 18 18 17 16 17 16 17 18 19 20 20 19 20 19 19 18 18 17 17 17 16 16 15 15 15 15 14 14 14 14 14 14 14 14 13 13 13 13 13 13 14 13 13 13 12 12 12 11 11 11 12 11 10 9 8 9 11 12 11 9 9 11 11 12 12 11 11 11 11 10 10 11 11 11 10
21 21 23 21 19 19 19 17 14 15 18 18 17 17 17 16 17 18 20 20 19 19 19 19 18 17 17 17 16 16 16 16 15 15 15 15 14 13 13 13 13 13 13 13 12 12 12 12 12 13 12 12 11 11 10 11 10 9 9 9 9 9 9 9 8 9 11 9 7 8 9 10 11 11 11 11 11 12 12 11 10 11 10 9 10
20 20 21 21 19 20 19 17 15 15 18 19 17 17 16 16 17 18 19 19 19 19 18 18 17 17 16 16 16 15 15 15 14 14 14 14 13 12 13 13 13 13 12 12 12 11 11 11 12 12 11 10 10 9 9 10 9 7 7 7 7 7 8 9 9 11 11 7 7 9 9 10 10 10 10 10 10 11 12 12 11 11 11 10 10
18 19 20 20 19 21 20 17 15 16 18 19 18 17 17 17 17 18 17 17 18 17 17 17 17 16 16 15 15 15 15 14 13 13 13 12 12 12 12 13 14 14 13 13 12 11 10 9 10 10 10 10 9 9 9 9 8 7 7 6 6 7 7 9 12 10 8 7 7 8 9 9 10 10 10 9 9 9 8 9 10 11 11 10 9
18 19 19 19 19 21 20 17 16 16 19 18 18 18 17 17 17 17 16 16 17 17 17 16 17 16 15 15 14 14 14 13 12 12 11 11 11 11 10 10 12 14 14 14 12 11 10 8 8 9 11 10 9 9 9 9 9 9 8 7 7 7 9 12 13 9 7 8 8 9 10 10 10 10 9 9 10 8 8 8 8 9 10 10 9
19 18 18 18 21 22 20 18 16 16 18 18 18 18 17 18 17 17 16 16 16 16 17 16 16 16 15 15 14 15 13 12 11 10 9 9 9 9 9 8 9 11 13 13 11 11 10 8 7 9 11 9 8 9 9 9 9 9 8 8 8 8 11 13 12 8 7 9 10 10 10 11 10 9 9 9 8 8 9 9 9 8 8 8 8
19 18 18 19 21 21 20 18 17 16 18 18 18 18 18 18 18 17 16 16 15 16 17 16 16 16 15 15 14 14 12 11 10 9 9 9 9 9 8 8 8 9 9 9 10 11 10 9 9 10 10 7 7 8 9 9 9 9 8 8 9 10 13 14 9 7 9 9 9 9 9 10 9 9 10 9 8 8 8 8 7 7 6 5 5
19 18 19 19 18 20 20 18 17 16 17 18 18 18 18 18 18 17 17 16 16 16 17 17 16 16 15 15 14 12 11 11 11 9 8 8 9 8 7 7 8 8 8 8 10 11 10 10 10 10 8 6 6 8 9 9 8 8 9 9 10 11 14 13 9 7 9 9 8 8 8 9 8 9 8 7 8 8 7 6 6 5 4 4 4
19 18 19 18 17 19 19 18 17 15 17 18 19 19 18 18 18 18 17 17 16 17 17 17 16 16 15 14 13 12 12 11 10 7 7 8 8 8 6 6 7 7 7 8 9 9 9 9 10 9 7 6 5 7 9 8 8 8 9 10 10 12 14 11 8 8 9 9 8 8 8 8 7 8 6 5 6 6 5 5 4 4 3 4 4
19 19 20 18 18 18 18 18 16 16 17 18 20 20 19 18 19 19 17 17 17 17 17 16 16 15 14 13 12 11 11 10 8 6 7 9 9 9 6 6 6 6 6 7 8 8 8 8 9 9 6 5 4 6 8 7 7 7 9 10 10 11 12 8 5 7 7 7 8 7 8 7 8 8 6 5 4 5 4 4 3 4 4 5 5
18 20 20 19 19 18 17 17 16 17 17 18 19 20 19 18 19 19 17 17 17 18 17 16 15 14 14 12 11 11 10 8 7 7 7 8 9 8 7 6 5 5 6 7 8 8 9 9 10 8 7 5 4 5 6 7 6 6 7 9 10 10 12 9 5 5 5 6 6 6 7 6 8 8 5 5 5 4 4 3 3 4 5 4 4
18 20 19 19 20 18 17 16 16 17 17 17 18 19 19 18 19 19 17 17 17 17 16 15 15 14 13 12 11 10 8 7 7 7 7 8 8 8 7 6 6 5 5 6 7 8 9 10 11 9 8 6 5 4 5 6 5 6 6 7 9 9 12 10 5 5 5 5 5 5 7 5 6 7 5 4 4 3 3 2 2 2 3 3 3
18 19 19 19 19 18 18 18 17 17 16 15 15 16 17 18 19 18 17 17 17 16 16 15 14 14 13 11 10 9 7 6 6 7 7 8 9 8 8 7 7 6 5 5 7 9 11 12 11 10 9 7 5 4 4 4 4 6 6 6 8 9 12 10 5 5 5 5 4 5 5 4 6 6 4 3 3 2 2 1 1 2 2 2 2
18 18 18 19 19 18 18 18 17 17 16 14 13 14 16 18 19 18 17 17 17 16 15 14 14 13 12 11 9 7 6 5 5 6 6 7 9 8 8 8 7 6 5 5 6 9 12 12 12 11 10 8 6 5 4 3 4 6 6 6 6 8 10 7 4 5 5 4 4 5 2 4 6 5 3 2 2 1 1 0 1 1 2 2 1
18 18 18 18 18 19 19 18 17 17 16 15 14 13 14 16 18 17 16 16 16 16 14 14 13 13 11 10 8 6 6 5 4 5 5 6 8 7 7 8 7 7 6 5 6 8 10 11 11 11 10 8 6 5 4 3 4 6 7 6 5 6 6 3 3 4 4 4 4 3 1 3 6 5 3 2 1 1 1 0 1 2 2 2 2
18 18 18 17 17 18 19 18 18 16 16 16 15 14 14 15 16 16 15 15 16 15 14 13 12 11 11 9 7 7 7 5 5 5 4 4 5 6 6 6 7 7 7 6 6 7 8 9 10 10 9 8 6 4 4 4 5 7 7 6 5 4 1 2 3 2 3 3 4 1 0 4 6 5 3 2 2 2 2 1 1 2 2 2 2
18 18 18 17 17 18 18 18 17 17 16 16 14 14 14 14 14 13 13 13 14 14 12 11 10 10 10 9 7 7 7 6 6 5 4 4 3 4 5 4 5 6 6 6 6 6 7 7 8 9 9 8 6 4 4 5 6 7 6 5 4 2 2 2 1 1 2 2 2 2 1 4 5 4 3 3 2 4 4 1 1 2 3 2 2
18 18 18 18 18 18 18 18 18 17 17 16 14 14 14 13 13 13 12 12 13 12 11 10 10 10 10 9 7 6 6 5 5 5 6 6 3 2 4 3 3 4 4 5 4 4 5 6 7 7 8 7 5 4 5 5 6 7 6 6 4 4 3 2 2 1 1 1 2 4 2 4 5 3 4 3 2 4 3 1 2 2 2 3 3
18 18 18 17 17 18 18 18 18 17 16 15 15 14 14 13 13 13 13 13 13 12 11 10 9 10 10 8 7 6 6 5 4 4 5 5 2 1 2 2 1 2 3 3 1 2 3 4 6 6 6 6 5 6 6 6 6 7 7 7 5 5 4 3 2 2 2 1 3 6 4 2 4 3 5 3 4 5 4 3 3 2 2 4 4
17 17 17 17 17 17 18 17 17 17 16 15 15 15 14 13 12 12 13 13 12 12 11 10 10 10 9 8 7 6 6 5 5 4 4 4 3 2 3 3 2 2 3 3 3 2 2 4 5 6 6 7 7 6 6 6 6 7 7 7 6 5 5 4 3 3 2 1 5 7 5 3 3 4 5 3 5 6 5 4 3 3 4 5 5
17 16 17 17 17 16 17 17 16 16 15 15 14 14 13 12 12 12 13 12 12 12 11 10 10 10 8 7 7 6 6 6 5 5 5 5 5 4 4 4 5 4 3 4 4 4 4 5 5 5 6 7 7 7 7 7 7 7 7 7 6 6 6 5 4 4 4 3 6 7 5 5 4 5 5 4 6 4 3 4 3 5 5 5 4
17 16 17 18 17 16 16 16 16 15 14 14 14 13 12 11 11 12 12 12 12 11 11 10 10 9 8 8 7 7 6 6 6 6 6 5 5 5 4 5 4 4 3 3 4 4 5 4 5 5 5 7 8 8 8 8 8 8 7 7 7 6 6 6 5 5 5 4 7 9 7 6 6 5 6 6 6 4 4 4 3 5 5 4 2
16 16 17 17 17 17 16 16 15 15 14 14 13 12 11 11 11 11 11 11 11 11 10 10 10 9 8 8 8 7 7 7 7 7 6 5 5 4 4 4 3 3 3 3 3 3 4 4 5 5 5 6 7 8 10 10 10 9 9 8 8 7 7 7 6 6 6 5 7 9 8 7 7 7 7 8 7 5 4 6 5 5 6 2 2
16 16 17 17 18 17 16 15 15 14 14 14 13 11 11 11 11 11 11 11 10 10 10 10 10 9 8 8 8 8 8 8 7 6 5 4 4 4 3 3 2 2 2 3 3 3 3 4 5 6 7 7 7 8 9 11 11 11 11 10 9 9 8 8 7 7 7 7 6 8 10 9 8 8 7 8 8 6 6 7 7 6 7 5 4
16 16 16 17 18 17 16 15 14 14 14 13 12 11 11 11 11 10 11 11 10 10 10 10 9 9 9 8 8 8 7 6 5 4 4 3 3 3 2 2 2 1 2 2 2 3 3 4 4 6 7 7 8 8 8 10 11 12 12 12 11 10 9 9 8 8 8 8 6 8 11 11 10 10 9 9 9 10 10 9 8 7 8 7 6
16 17 16 18 17 17 16 15 14 14 14 13 11 11 11 10 11 11 11 11 10 10 10 9 9 9 9 9 8 7 5 5 4 4 4 3 3 2 2 2 1 1 2 2 2 3 4 4 5 5 7 8 9 8 8 9 10 12 12 13 12 11 10 9 9 9 9 9 7 8 10 12 11 11 11 11 11 11 11 10 9 8 8 7 7
17 17 16 17 18 17 16 15 14 14 13 13 11 11 10 10 11 10 11 11 11 10 10 10 9 8 9 8 8 7 5 4 4 4 4 3 3 2 2 2 1 1 2 3 3 3 4 4 5 6 7 8 9 9 9 10 11 11 12 12 12 11 10 10 10 10 10 10 9 8 9 11 12 13 13 13 12 12 12 11 10 9 8 8 7
17 17 16 17 18 17 16 15 14 13 13 12 11 10 10 10 11 11 11 11 11 10 10 10 8 8 8 8 7 6 5 4 4 4 3 3 2 2 2 1 1 1 2 3 3 3 4 4 5 6 7 8 9 9 10 11 12 12 12 12 12 12 11 10 10 10 10 10 9 9 9 10 11 13 14 15 14 13 13 13 11 10 9 9 8
16 17 16 18 19 18 16 15 14 13 13 12 11 10 10 11 11 11 10 10 10 9 9 9 8 8 7 7 6 6 5 4 4 3 3 3 2 2 2 1 2 2 2 3 3 3 4 4 5 6 7 8 9 9 10 11 11 11 12 12 12 12 11 11 11 11 10 10 10 10 10 10 11 12 13 15 15 14 14 14 14 12 11 11 10
15 16 16 18 19 17 15 15 14 14 13 11 11 10 10 11 12 11 11 10 10 9 9 8 8 8 7 6 6 5 5 4 3 3 3 3 3 3 2 2 2 2 3 3 3 4 5 4 5 6 7 7 8 9 10 11 11 11 11 11 12 12 12 12 12 12 11 10 10 10 11 11 12 12 12 13 14 15 15 15 16 16 14 12 12
13 15 16 17 18 17 15 14 14 14 13 11 11 11 11 11 11 10 10 9 9 8 8 8 7 7 7 7 6 5 4 3 3 3 3 3 3 3 2 2 3 3 3 4 4 5 5 5 5 5 6 7 7 8 9 10 11 11 11 11 11 12 13 13 13 12 11 11 11 11 11 12 12 13 13 12 13 14 14 14 17 18 16 14 14
12 14 15 16 17 17 15 14 15 14 13 12 12 12 12 11 10 9 8 8 8 7 7 7 7 6 6 6 5 5 4 4 3 3 3 3 3 3 3 3 4 4 4 4 5 5 5 5 6 6 6 6 7 8 9 9 10 11 11 11 11 11 12 12 12 11 12 13 13 13 12 12 13 13 14 14 13 13 13 13 15 18 18 16 16
11 13 14 16 17 16 15 15 15 14 13 13 12 12 12 11 9 8 7 6 7 6 6 6 6 6 5 5 5 5 5 4 4 3 3 3 3 3 3 3 4 4 4 5 5 5 4 5 7 7 7 7 7 7 8 9 9 9 10 10 10 11 11 11 11 11 12 14 14 14 14 12 12 14 15 15 14 13 12 12 13 17 19 18 17
10 12 14 17 17 16 15 16 15 13 12 12 11 11 11 10 10 8 7 7 6 6 6 6 5 5 5 5 5 5 4 4 3 3 2 2 3 3 4 3 4 5 5 5 5 5 4 4 6 7 7 7 7 7 8 8 8 8 8 9 9 10 11 11 11 11 12 13 14 14 14 13 13 14 15 15 15 14 13 12 12 14 17 18 18
9 12 14 16 16 16 17 16 15 14 12 12 12 12 11 11 11 10 9 8 8 7 6 6 5 5 4 4 4 4 4 4 4 3 2 2 3 3 3 4 4 5 5 6 5 5 5 5 5 6 7 8 8 8 7 7 8 9 9 9 10 11 12 12 12 12 12 12 13 13 13 13 13 13 14 14 15 15 14 14 13 13 14 16 17
9 11 14 15 14 16 17 16 15 14 14 14 14 13 12 12 11 11 10 9 8 8 7 6 5 4 4 4 4 4 4 4 4 3 3 3 3 3 3 4 4 4 5 6 6 5 6 6 5 6 7 8 8 7 7 7 9 10 9 9 10 12 12 12 13 13 13 12 12 13 13 13 13 13 13 14 15 15 15 15 14 14 14 14 16
10 11 13 13 13 15 16 15 15 14 14 14 14 12 11 11 10 10 10 9 8 7 6 5 4 4 5 4 4 4 4 4 4 4 4 3 3 3 4 4 4 4 5 5 6 6 6 6 6 6 6 7 8 8 6 7 9 9 8 8 9 10 11 12 13 13 13 13 13 13 13 14 14 13 13 13 14 16 16 16 16 16 15 14 14
9 10 11 11 12 13 14 14 14 14 13 13 11 10 10 9 9 9 9 8 7 6 5 5 4 4 4 4 4 4 4 5 4 4 4 3 4 4 4 4 4 5 6 6 6 6 6 6 6 7 7 7 8 8 7 7 9 9 8 7 7 6 6 9 10 11 12 13 13 14 14 14 15 14 13 13 15 15 16 16 16 16 16 16 15
9 10 10 11 13 13 14 14 14 14 13 11 9 9 10 10 10 9 8 7 7 6 5 4 4 3 3 3 3 3 4 4 4 4 3 3 4 4 4 5 5 6 7 7 7 7 6 6 6 7 8 9 9 9 8 9 9 9 7 7 6 7 5 3 5 8 11 12 13 14 14 14 14 15 15 15 15 15 16 16 17 17 18 17 17
9 9 10 12 13 13 14 14 13 13 12 10 10 11 11 12 11 10 8 7 6 6 5 4 4 3 3 3 3 3 3 3 3 3 3 3 3 4 4 5 6 6 7 8 8 7 7 6 7 8 9 10 11 10 9 9 10 10 9 8 7 6 5 6 8 7 8 10 12 13 14 14 14 14 15 16 16 16 17 17 19 21 20 19 19
10 9 10 11 13 14 14 13 12 12 11 11 12 12 11 11 10 9 7 7 6 5 5 5 4 4 3 3 2 2 2 2 1 1 2 2 3 4 5 6 7 7 8 8 8 8 8 7 8 9 9 10 10 11 11 9 10 12 13 12 10 9 9 10 9 7 6 8 11 12 13 14 14 14 15 16 17 17 18 18 20 23 22 22 22
13 12 11 11 12 13 14 13 12 12 12 12 12 11 11 10 9 7 6 6 6 5 4 4 4 3 3 2 2 2 1 1 1 1 2 3 5 6 6 7 8 8 9 9 10 9 9 9 9 9 10 10 10 12 12 11 10 12 12 13 14 14 13 11 9 8 8 8 10 11 13 14 14 15 16 16 17 18 18 19 20 22 23 24 23
14 13 12 12 13 14 14 13 14 13 12 12 11 11 10 9 8 6 5 5 6 6 5 4 4 3 3 3 2 2 2 2 2 3 4 5 6 7 7 7 8 9 9 9 10 10 10 10 10 10 11 11 11 12 13 12 12 13 12 12 13 14 15 15 14 11 9 8 9 10 11 13 14 15 16 16 17 17 18 19 19 21 22 23 23
17 15 14 15 16 16 15 14 13 13 12 12 11 10 9 7 7 7 7 6 7 7 6 5 5 4 4 3 2 1 1 2 3 4 5 6 7 7 7 7 8 9 9 9 10 10 11 11 12 12 12 12 12 13 14 14 14 14 13 13 13 13 14 15 15 14 12 10 9 9 10 10 12 14 15 15 17 17 18 19 20 21 22 23 22
18 17 17 17 16 15 15 14 13 12 12 12 10 9 8 7 7 8 8 7 7 7 6 6 5 4 3 2 0 1 2 3 4 4 5 6 6 7 7 7 8 8 8 9 10 10 11 11 12 13 13 13 13 14 15 16 15 15 15 14 14 14 13 12 12 13 13 11 10 10 12 12 11 13 13 14 17 17 18 18 19 21 21 22 22
21 19 17 17 16 14 14 14 12 12 12 11 10 9 8 8 8 9 8 8 7 6 6 5 4 2 1 1 2 3 3 4 4 4 5 6 6 6 7 7 8 8 8 9 9 10 10 11 12 12 12 13 14 14 15 16 16 17 16 15 15 15 14 13 13 13 11 10 11 10 13 16 16 16 15 14 15 17 18 18 19 20 21 22 22
Wind_Direction
162 153 155 164 159 157 153 158 165 164 160 145 141 144 144 145 149 149 146 142 140 138 131 126 122 122 121 122 124 126 126 123 122 120 119 117 116 115 114 113 113 112 112 112 110 108 108 107 107 106 106 105 104 102 100 97 95 95 95 97 97 98 98 98 97 96 94 90 87 85 84 84 85 87 90 88 87 93 93 91 83 68 63 64 67
159 149 153 162 157 158 152 156 164 163 163 151 143 142 144 143 145 145 143 141 139 134 128 125 124 125 125 127 128 127 125 122 121 119 117 117 116 114 112 111 112 113 112 111 109 109 108 109 109 109 110 108 106 104 101 96 91 91 95 99 99 101 101 101 100 98 94 88 82 82 85 82 78 78 83 90 92 100 105 102 96 84 71 65 63
154 145 148 158 157 157 152 155 162 164 164 158 151 145 146 144 143 142 139 138 134 131 128 128 128 127 128 128 128 127 124 122 120 117 116 115 115 113 112 113 113 113 111 111 110 110 109 110 110 111 111 109 108 106 102 95 87 84 89 97 98 99 100 101 102 101 93 82 73 71 76 77 75 73 73 81 89 94 107 113 105 87 75 71 64
152 141 144 154 154 155 152 153 158 164 164 159 155 150 149 145 142 138 136 135 132 132 130 130 129 128 129 128 127 126 123 120 120 117 117 115 116 114 114 113 112 110 110 111 111 111 111 111 112 112 111 110 110 107 102 95 89 83 83 89 92 93 95 99 103 102 90 82 77 73 75 78 78 76 74 75 83 83 83 89 89 81 77 75 70
149 141 144 147 149 153 153 152 155 160 162 155 148 146 145 142 139 136 137 135 134 133 132 131 130 129 128 128 127 125 123 121 120 120 118 116 114 112 111 110 110 111 111 111 110 111 111 112 114 113 111 111 111 108 101 94 89 83 80 81 83 85 88 95 98 95 86 80 79 81 83 85 81 75 75 75 77 81 78 75 73 71 65 56 56
148 141 141 142 144 151 153 152 153 157 157 148 140 140 140 139 137 136 138 137 136 134 132 132 130 130 129 129 128 126 126 123 120 119 117 112 109 108 110 111 112 112 110 109 109 109 111 114 114 113 110 111 111 107 98 89 81 76 74 75 77 76 79 84 87 89 81 72 73 84 88 88 87 78 76 74 74 80 81 79 80 74 67 60 51
147 140 139 141 143 150 153 152 153 154 151 142 138 138 139 137 137 137 138 138 136 135 133 132 132 132 132 131 129 127 125 123 119 117 117 112 108 106 107 110 112 111 110 109 110 111 113 115 114 113 110 110 110 103 91 79 71 66 65 69 70 70 73 69 76 93 85 71 73 86 89 89 91 86 80 78 76 75 74 73 80 81 80 76 59
145 140 139 141 145 153 152 152 151 152 150 141 138 139 138 137 137 135 136 136 135 135 134 133 134 134 133 131 128 126 123 122 120 120 119 115 112 111 113 116 118 118 115 115 114 113 114 116 115 113 112 114 109 96 81 67 62 60 64 66 67 72 71 69 82 90 81 78 86 87 90 91 93 93 88 85 82 73 64 57 62 73 78 78 69
144 138 138 139 148 155 151 153 151 151 150 141 138 138 138 137 136 134 133 134 135 136 136 135 134 133 133 130 127 126 124 122 123 123 118 117 116 116 119 125 133 132 128 124 120 119 118 116 112 113 118 115 104 88 69 62 66 68 69 70 75 75 72 83 90 80 72 84 90 88 91 94 95 95 91 87 90 87 78 66 61 67 75 83 84
143 138 138 138 149 154 151 153 150 149 148 140 138 139 137 136 136 136 135 136 136 136 137 136 134 134 132 129 128 127 124 120 121 122 119 121 117 114 114 122 137 140 138 130 125 127 123 121 119 120 124 114 97 79 61 64 73 72 72 76 82 80 83 89 84 75 82 91 89 89 93 96 94 94 95 87 91 102 110 112 102 89 84 87 88
143 139 136 140 150 153 151 152 150 148 145 140 138 139 136 135 138 137 136 137 137 137 137 136 134 133 131 131 130 124 120 116 115 117 118 118 113 111 109 115 128 137 141 130 129 136 127 140 149 133 126 113 93 74 60 69 74 69 69 79 84 84 94 88 77 80 91 92 94 96 96 95 93 98 104 97 95 97 102 106 104 99 95 93 93
145 138 137 145 153 152 151 152 150 147 143 140 138 137 135 135 140 139 138 138 139 140 137 136 134 132 133 132 126 119 116 113 109 108 109 110 109 109 110 116 123 132 142 136 140 145 142 160 163 140 127 113 92 72 65 75 78 70 68 77 81 89 97 87 82 94 92 95 97 96 96 93 96 103 108 110 109 103 100 102 99 97 99 92 81
147 138 137 144 152 151 152 153 149 147 142 139 138 137 136 136 139 142 143 141 142 142 139 138 137 136 135 130 123 119 118 113 106 101 105 113 115 116 119 126 134 140 147 154 155 153 154 160 153 141 132 117 91 72 70 80 86 76 72 75 79 95 98 90 93 98 93 96 95 94 95 95 100 99 100 107 111 113 112 114 110 102 92 66 51
148 140 138 141 148 151 153 152 148 145 141 138 138 139 139 139 142 147 148 146 146 143 142 141 141 138 133 128 124 123 120 113 104 98 106 113 107 102 106 120 138 148 152 165 166 159 155 150 145 144 139 122 91 71 71 79 89 81 75 75 80 97 96 87 96 99 95 96 95 101 97 99 108 101 105 109 106 110 107 106 106 95 71 51 63
146 144 141 141 146 148 150 149 146 142 140 139 139 142 143 144 147 150 150 150 148 145 145 143 141 137 132 130 127 126 121 112 99 91 103 106 98 92 88 99 119 142 154 162 162 157 154 152 150 150 146 128 97 74 68 73 87 82 75 75 81 100 102 92 97 99 98 99 97 101 100 106 116 111 111 112 109 105 97 89 84 83 67 58 79
147 147 143 143 147 145 145 144 144 142 140 140 141 146 148 150 152 153 154 150 149 148 147 145 142 138 136 136 133 129 121 110 94 84 97 103 101 100 91 87 96 117 145 158 159 158 159 158 156 154 149 135 108 81 66 67 82 88 78 72 78 100 112 105 101 102 99 101 99 101 103 110 118 116 109 106 112 104 95 77 62 79 68 55 78
149 151 147 148 149 144 142 140 141 140 139 141 143 148 151 153 153 155 155 151 153 151 148 146 144 141 140 139 134 130 121 108 95 86 91 99 101 100 94 83 77 85 117 149 161 165 165 159 157 157 150 141 124 93 67 66 85 100 90 79 78 96 111 105 99 104 99 101 100 97 103 123 125 117 114 107 111 104 96 88 55 53 58 49 61
152 154 151 151 152 147 143 142 140 137 137 139 142 148 151 154 155 156 155 154 157 155 151 148 145 144 142 139 135 130 122 109 100 92 88 95 95 93 95 84 73 74 93 132 153 163 164 162 159 157 152 147 134 105 78 71 95 115 111 95 83 95 105 100 99 102 104 108 99 91 106 149 134 115 123 114 108 104 93 93 5 355 18 30 34
154 156 155 156 156 152 146 145 143 141 140 139 142 146 150 154 157 158 156 158 159 157 154 150 148 145 142 140 136 129 124 115 102 95 90 94 93 92 97 92 86 82 86 118 150 162 163 163 160 156 155 151 139 116 95 87 118 133 129 111 96 96 91 87 107 109 108 109 99 97 121 166 134 125 140 129 121 124 101 21 327 329 338 343 354
154 158 159 160 161 155 150 149 148 147 145 142 143 144 148 154 157 158 157 160 160 158 155 153 150 145 145 141 135 134 129 117 102 97 90 96 104 106 101 98 97 91 92 110 143 161 164 162 159 158 157 153 144 124 116 123 143 145 139 129 111 93 75 79 124 117 112 110 107 105 163 158 138 138 147 149 162 196 204 282 310 322 328 314 294
154 160 161 163 163 157 151 151 151 151 148 144 143 144 148 150 154 158 159 162 162 158 154 152 148 146 148 140 134 137 131 125 119 106 91 97 110 113 109 104 105 100 99 109 137 160 163 162 163 161 158 156 146 127 126 135 146 150 148 144 119 98 103 147 135 127 122 118 121 114 242 147 144 145 158 184 193 231 254 309 323 326 329 323 300
155 159 162 164 161 156 152 150 151 153 150 145 144 145 146 145 150 155 157 162 163 158 150 149 149 150 153 146 142 142 136 134 134 126 121 130 121 117 119 113 115 113 110 115 136 161 168 168 169 168 165 158 142 134 143 140 147 151 154 151 134 171 203 175 173 150 142 131 141 266 293 140 152 165 192 197 211 266 291 336 307 302 299 304 306
158 160 162 164 159 154 152 152 153 153 151 148 147 148 149 150 152 155 156 160 164 163 156 155 155 156 160 157 155 158 154 151 156 162 157 159 173 154 141 134 138 138 126 114 118 150 173 181 182 181 175 167 163 180 177 160 159 155 160 170 182 217 207 198 210 183 198 129 180 271 298 140 154 189 225 206 214 266 295 280 246 269 281 288 292
161 161 159 161 159 154 152 155 156 154 153 151 149 151 153 156 156 159 160 160 163 168 165 162 160 159 163 163 162 166 163 165 174 167 157 169 211 219 155 128 142 174 130 110 98 126 157 187 197 195 188 195 209 213 199 183 180 173 180 195 209 218 209 218 223 217 234 121 221 270 292 177 170 214 231 221 222 236 241 233 240 250 251 267 273
161 161 157 160 160 155 154 157 157 156 155 153 153 154 156 159 162 164 164 165 165 168 170 167 166 163 163 167 167 166 161 162 167 160 154 165 174 175 168 152 168 201 164 158 202 202 170 188 202 205 205 215 221 221 217 205 197 196 201 206 211 215 217 228 229 232 234 199 238 267 291 255 221 226 222 223 234 238 237 218 218 244 259 270 258
162 163 158 159 158 157 159 159 159 159 158 156 156 156 160 163 165 166 166 168 169 169 171 172 171 169 168 167 166 164 163 163 163 164 164 164 163 161 162 162 168 188 191 189 202 205 201 198 201 208 212 220 223 226 226 220 215 212 212 213 214 219 226 233 232 235 232 220 246 267 280 272 260 231 217 226 233 234 219 200 218 240 273 289 247
164 163 157 156 156 159 162 161 161 160 159 159 159 159 163 165 165 167 168 168 169 169 170 172 172 171 171 168 167 167 164 164 169 172 170 167 163 161 157 156 160 167 181 195 203 210 217 215 213 217 219 221 224 228 230 230 229 226 223 220 221 226 231 240 241 242 240 227 247 263 265 264 266 239 223 224 222 221 212 214 235 240 259 289 227
165 160 156 156 159 161 162 163 162 160 161 161 160 161 164 164 164 166 167 167 167 168 167 168 168 168 171 170 169 167 166 169 176 178 175 171 164 162 161 157 162 169 186 199 204 211 222 227 227 229 230 227 226 228 234 236 234 235 235 229 229 233 233 240 247 249 250 240 242 255 259 258 259 249 227 213 211 217 212 223 237 237 240 243 200
162 159 159 159 161 161 163 165 163 163 163 161 161 162 164 163 163 163 165 165 164 165 164 163 164 165 167 168 165 165 173 177 175 175 171 166 163 163 162 163 168 184 209 217 221 226 228 234 235 235 236 235 233 231 234 238 237 238 239 237 235 237 237 238 245 249 251 250 244 249 258 257 253 252 230 209 219 231 225 228 236 233 223 215 212
160 159 163 161 161 162 165 166 164 167 165 162 164 163 164 163 162 162 162 162 162 161 160 161 162 161 162 164 165 170 176 173 167 172 175 173 174 180 183 180 176 195 234 239 242 245 249 251 248 246 243 242 242 237 235 240 241 240 241 241 239 239 241 242 247 253 254 254 249 245 254 254 248 250 236 218 223 233 233 228 227 226 216 214 216
160 161 163 160 161 163 166 166 166 169 166 164 166 164 164 161 160 160 160 161 161 159 159 161 161 161 163 163 167 173 173 167 173 184 192 199 201 217 227 220 201 203 247 262 264 262 261 259 257 258 255 252 250 244 242 245 246 245 243 243 244 242 242 245 250 255 258 258 254 245 249 251 246 245 242 232 223 223 228 224 218 219 217 217 217
163 165 161 159 162 164 166 167 169 169 167 165 164 164 163 160 160 159 159 160 159 159 161 162 161 162 164 167 169 174 180 181 187 195 208 224 227 243 256 261 255 245 269 275 279 277 266 261 260 262 262 260 257 252 250 250 250 251 249 247 247 244 243 246 248 253 262 263 256 248 245 247 246 245 243 240 230 219 218 218 216 216 216 216 218
164 164 160 161 164 165 166 168 171 170 167 165 163 163 161 160 159 158 159 159 160 162 162 162 162 163 167 174 174 177 190 193 194 201 217 232 238 258 267 273 279 277 276 272 274 272 265 268 266 264 263 261 260 258 256 253 252 252 252 253 252 248 245 246 246 250 257 257 252 248 243 243 246 247 245 243 236 224 217 216 217 219 219 218 220
161 161 161 162 164 165 167 169 171 169 167 166 164 162 160 159 159 159 158 158 161 163 163 163 162 165 172 179 178 183 195 200 205 210 225 244 248 259 272 283 284 281 270 266 268 266 261 265 266 266 265 261 260 259 258 258 256 253 252 252 254 254 248 246 248 248 248 248 248 243 238 239 244 244 244 245 242 233 222 216 216 218 220 225 229
159 163 165 163 163 165 164 166 169 167 167 167 166 163 159 159 160 159 159 158 161 163 163 166 166 170 179 182 183 189 194 197 209 216 227 243 252 257 272 286 287 287 278 275 277 275 267 259 261 266 267 264 262 261 260 261 260 258 257 255 254 254 251 249 250 248 244 243 245 245 240 238 241 240 236 241 246 242 232 219 215 216 216 224 229
163 165 166 163 162 163 161 162 165 165 166 166 163 160 157 158 160 159 161 161 162 164 166 169 171 176 181 183 184 191 194 195 204 219 232 240 253 263 274 283 286 288 284 284 283 281 277 269 262 257 263 266 264 263 260 261 263 261 260 259 257 256 254 253 251 249 246 243 245 250 246 238 236 234 231 233 239 245 240 225 217 216 214 218 221
163 162 163 163 162 161 159 159 163 164 164 161 156 155 155 156 158 158 161 162 163 167 170 175 177 177 178 176 178 186 191 195 208 220 232 240 254 271 281 281 290 292 285 284 281 282 285 284 278 266 261 263 266 266 262 262 264 264 262 259 260 260 257 256 253 250 248 247 248 249 247 241 234 229 230 231 234 242 244 235 227 219 216 219 221
156 159 162 162 161 158 156 157 160 161 157 155 152 152 154 154 154 154 155 159 165 169 170 176 176 172 171 170 173 184 192 197 212 220 227 249 260 275 281 286 294 292 284 279 277 277 280 283 286 282 273 269 270 269 267 266 265 267 265 261 260 261 259 257 256 254 251 250 249 247 246 244 236 231 230 230 230 234 238 241 236 224 220 224 226
153 156 159 161 160 156 155 156 158 157 153 152 150 150 153 154 151 149 150 152 158 163 165 171 171 166 170 172 178 189 196 199 211 223 226 253 270 280 285 293 294 291 288 282 279 273 274 285 289 286 284 277 270 266 268 268 265 263 262 263 260 259 259 259 258 256 253 252 249 246 246 244 238 233 232 230 228 228 232 235 231 223 224 227 229
155 156 160 162 161 158 156 157 158 156 153 152 150 151 154 154 152 152 154 154 154 161 166 168 166 168 174 178 190 198 201 204 218 233 230 246 269 277 283 289 291 296 294 288 292 288 285 294 290 284 284 280 269 262 267 270 267 263 259 259 258 257 258 257 256 254 254 253 250 246 243 240 238 236 235 231 229 228 229 228 225 222 223 230 233
160 162 164 164 162 161 159 157 159 159 157 158 156 155 158 158 161 163 161 159 159 162 165 166 165 169 175 180 195 203 206 212 219 224 222 236 255 256 267 279 284 296 296 293 297 293 288 289 286 283 283 284 281 271 275 281 276 270 267 264 260 257 253 253 255 253 252 251 247 244 241 238 236 237 236 232 230 230 229 227 225 224 220 227 233
164 167 165 165 165 164 161 158 161 164 163 162 160 159 161 163 166 165 161 158 162 166 162 161 164 170 179 188 200 206 211 215 216 218 222 233 249 253 267 278 283 290 293 293 291 286 285 283 277 280 276 275 280 279 278 279 277 282 287 282 276 261 240 237 248 251 249 247 242 241 239 237 237 236 237 235 232 229 229 229 225 223 219 220 225
160 167 168 167 168 165 163 163 164 167 167 163 163 162 162 164 163 161 159 158 160 157 149 154 165 169 184 200 206 212 217 218 215 219 229 240 254 267 276 276 281 284 283 285 284 280 281 275 266 272 273 266 268 269 262 256 270 287 291 282 289 288 246 225 234 240 240 239 236 236 235 237 239 238 238 238 235 229 228 230 228 223 219 219 221
154 169 174 171 173 170 166 166 167 170 169 165 165 160 155 151 147 147 147 148 152 148 146 157 171 178 191 204 211 218 225 226 218 215 226 245 259 272 279 280 284 286 283 282 279 276 276 275 268 266 270 271 271 267 255 249 260 276 286 286 291 293 280 260 258 247 235 232 232 232 233 236 238 237 236 236 236 232 229 230 228 227 223 220 219
152 172 179 173 175 176 170 168 170 171 169 166 162 154 148 141 137 139 140 144 151 155 162 164 167 175 177 182 193 207 224 230 226 223 226 245 266 275 280 285 288 286 286 285 282 279 275 275 272 265 264 272 280 281 271 256 254 260 274 289 291 283 290 314 309 279 242 235 237 235 233 233 234 234 233 233 234 234 233 231 228 229 228 222 218
150 172 179 175 178 180 174 169 169 169 165 163 159 155 152 147 147 152 156 163 163 157 160 151 145 153 156 162 168 174 209 226 224 243 254 272 288 294 294 296 295 292 293 293 291 290 286 281 276 271 265 266 275 282 279 269 260 262 266 271 277 280 292 308 308 297 267 246 241 238 235 234 234 234 234 234 234 234 234 233 232 232 230 227 223
147 166 177 180 181 175 172 170 165 163 161 159 159 157 156 154 156 159 167 177 166 146 137 124 119 136 146 146 135 117 97 76 77 26 342 322 314 312 309 307 304 301 300 297 294 294 293 290 285 279 272 268 267 273 280 282 275 269 266 265 267 268 276 285 287 293 293 270 251 241 235 236 235 235 236 235 234 233 233 233 234 233 231 229 225
146 162 172 175 172 166 167 166 158 157 159 157 158 157 153 152 154 156 161 163 141 129 126 119 120 135 134 126 116 93 59 32 23 6 344 329 321 316 312 309 306 305 301 295 292 294 294 294 292 284 280 279 276 276 282 283 278 276 274 269 265 264 267 268 267 273 281 283 276 261 248 243 239 238 238 237 235 233 232 232 233 232 231 230 226
148 158 163 166 166 164 164 159 151 153 153 150 151 149 145 146 148 146 143 136 126 128 136 136 139 143 135 127 126 100 4 340 338 331 320 318 317 313 309 306 304 303 299 293 292 295 295 295 294 291 290 290 288 285 281 279 278 278 277 275 273 272 269 264 263 263 264 271 280 280 275 262 247 245 244 241 241 238 234 232 232 231 230 232 228
145 153 157 160 160 159 157 148 144 144 141 141 141 136 134 136 137 136 136 136 136 141 148 148 153 162 156 151 200 307 314 319 326 320 315 318 317 313 310 306 303 301 298 294 292 293 293 292 292 292 294 295 292 289 284 280 280 278 277 279 280 277 272 267 263 260 260 264 270 278 283 280 271 264 254 243 242 243 241 236 233 231 229 230 229
142 145 148 151 149 147 144 137 135 132 129 131 127 121 119 119 123 130 138 142 144 152 156 155 167 183 194 274 296 304 313 322 328 324 321 326 324 316 312 307 303 300 297 296 293 293 294 292 291 290 290 290 289 289 286 283 281 279 279 279 278 278 276 275 271 267 264 266 270 275 279 281 282 279 271 257 248 247 247 244 237 232 229 228 227